Dewpoint
59 59 59 59 59 59 60 60 60 60 60 60 60 60 60 59 59 58 60 60 60 61 60 61 60 58 58 58 60 55 50 14 13 13 13 16 36 53 53 56 58 59 54 37 19 19 13 15 13 16 14 17 19 19 18 20 20 30 22 20 19 20 17 19 16 17 11 9 16 22 23 21 20 22 22 23 23 25 27 29 24 21 19 17 15 16 18 18
59 58 58 60 59 59 60 60 60 60 60 60 61 60 59 59 59 59 60 60 61 61 61 60 60 59 58 58 59 50 36 12 10 12 13 31 47 52 57 58 57 56 55 25 16 15 13 13 15 15 13 17 19 17 19 17 18 23 19 17 12 17 17 16 14 15 4 5 12 21 22 21 19 21 21 19 21 24 25 27 27 24 22 16 16 17 18 18
59 59 59 58 58 59 59 59 60 60 60 60 61 60 59 59 59 60 60 60 60 61 60 60 59 58 58 57 57 51 38 13 8 8 13 50 54 54 56 57 56 52 40 22 22 16 14 15 17 13 14 14 17 16 16 13 20 19 21 14 14 20 11 13 12 12 10 11 16 21 21 20 19 21 22 19 19 24 23 23 26 26 24 19 16 17 18 18
58 58 59 59 59 58 59 59 59 60 60 59 60 60 59 59 58 59 59 60 60 61 60 59 59 58 58 55 57 47 17 17 6 12 14 50 54 54 55 55 56 46 36 28 25 23 21 19 18 15 17 16 20 18 16 18 20 16 16 14 15 12 9 10 11 11 10 16 15 20 22 20 21 20 20 20 20 21 21 23 24 24 24 21 17 17 19 17
58 58 58 58 57 58 59 59 60 59 59 61 59 60 59 59 59 58 59 58 59 59 59 58 58 58 58 56 54 37 25 4 5 11 15 54 52 53 54 51 54 47 34 25 19 17 18 16 16 21 24 16 20 16 16 16 16 17 13 12 11 10 3 12 12 11 13 16 16 20 19 20 23 22 21 20 16 12 21 23 27 25 24 20 16 17 18 17
58 57 57 57 56 58 58 59 59 60 59 59 59 60 58 60 59 58 58 57 58 57 59 58 58 57 57 51 40 32 26 12 20 13 49 52 52 51 51 50 43 38 22 16 15 15 15 15 15 20 18 16 19 15 16 18 17 10 13 11 12 10 6 11 13 13 17 17 16 19 18 22 21 20 22 21 19 16 27 32 33 29 25 20 19 18 18 18
58 57 57 56 58 58 58 59 59 58 59 59 61 59 59 59 59 58 58 57 58 59 59 59 58 58 56 50 40 21 10 11 11 17 43 48 51 45 46 42 42 33 20 16 13 14 16 14 15 23 22 23 18 14 15 13 16 14 10 10 9 12 10 14 13 13 14 15 15 20 22 18 22 21 25 23 22 26 32 28 30 31 27 23 21 19 19 18
58 57 56 57 57 58 58 58 59 59 59 60 59 59 58 58 58 58 58 58 58 58 59 58 58 56 50 38 31 18 13 11 13 19 39 45 31 27 44 23 30 26 20 18 15 12 18 12 12 22 20 22 24 19 25 13 14 19 16 12 11 14 14 15 14 12 13 16 17 18 17 16 21 19 20 20 21 21 24 22 25 28 26 22 21 20 21 19
57 56 55 57 57 58 58 59 58 59 59 59 59 58 58 57 57 56 57 58 58 59 59 58 55 53 52 37 17 9 8 13 13 17 22 23 21 17 19 14 18 21 22 23 20 17 16 17 17 19 15 23 23 24 24 19 15 23 17 13 12 13 14 13 14 14 13 16 17 17 15 17 19 19 18 18 18 20 21 21 24 26 23 20 20 20 20 19
56 55 55 57 57 58 58 58 58 59 58 58 58 59 58 57 56 56 57 58 57 58 58 59 59 51 39 23 29 5 12 15 20 20 22 22 19 17 17 17 17 21 23 21 22 19 12 14 15 17 21 22 23 27 25 25 18 23 20 17 11 12 13 13 13 14 14 15 16 13 11 14 19 14 10 17 18 21 20 20 21 23 22 19 19 21 20 19
57 55 57 57 58 58 58 58 58 58 58 58 59 59 59 58 57 56 57 57 57 58 58 58 54 47 31 20 10 5 12 15 23 20 22 21 15 15 16 18 18 22 23 23 23 22 19 16 19 21 29 20 23 23 26 24 22 18 17 20 16 14 11 13 14 13 13 14 15 14 13 15 17 17 13 15 17 18 19 19 18 20 22 20 18 18 19 18
57 56 57 57 58 58 58 58 58 57 58 58 60 59 58 57 56 55 56 58 58 58 58 55 50 24 22 15 12 11 16 18 24 20 22 19 16 16 17 17 21 19 21 23 24 25 23 21 21 31 19 26 21 22 20 24 21 18 24 15 15 17 9 11 11 13 13 11 15 14 12 14 17 14 15 17 15 17 17 18 18 19 20 20 18 17 18 18
57 57 57 57 57 58 57 57 58 58 58 59 59 59 58 57 56 55 56 56 57 57 57 52 45 30 31 17 15 15 19 20 22 19 22 22 19 18 18 19 20 24 25 23 23 25 29 29 23 24 31 27 30 24 27 25 25 27 20 19 16 19 16 13 12 12 12 11 14 16 10 9 14 14 14 18 15 15 17 18 17 17 17 18 19 17 17 17
56 57 57 57 57 58 57 57 58 58 59 58 58 57 57 57 56 56 58 58 58 58 52 48 37 30 23 20 12 15 15 25 18 18 21 23 18 14 19 19 20 22 25 26 28 31 28 27 25 29 34 26 23 27 19 20 27 18 22 23 20 11 11 14 13 15 11 14 14 19 10 7 11 13 15 18 16 15 15 16 17 17 16 16 19 18 18 17
56 56 57 57 58 57 57 57 57 58 57 57 57 57 57 56 56 56 57 54 55 56 56 54 32 30 21 17 13 22 45 24 16 16 21 24 21 12 16 18 18 20 22 23 22 23 24 31 27 25 23 27 30 27 22 19 19 19 16 15 17 15 16 9 17 15 9 14 14 21 12 10 8 10 14 16 16 15 15 15 15 16 16 16 16 16 16 16
56 57 56 56 56 57 56 56 57 57 57 56 56 57 56 56 55 54 56 53 51 57 54 46 44 23 20 11 11 41 18 15 16 16 20 24 24 20 21 15 18 18 17 15 20 21 24 24 24 26 21 21 23 17 20 19 16 16 18 15 12 14 14 14 18 19 21 16 17 19 13 11 8 13 15 14 15 14 15 15 16 16 16 16 15 16 15 16
56 56 56 57 57 56 56 56 56 56 56 56 56 56 57 57 53 56 55 49 44 45 36 32 34 37 20 17 15 13 14 15 16 19 19 25 25 24 17 16 18 17 17 15 16 20 20 19 26 25 27 21 23 25 14 9 7 9 16 15 11 13 9 5 19 22 22 18 15 19 15 11 10 10 15 14 14 14 13 14 14 15 16 16 17 15 14 15
55 55 56 57 57 56 56 56 57 56 56 56 56 57 57 55 50 48 47 49 45 46 44 39 36 26 16 14 8 11 16 16 17 18 19 23 27 25 23 21 22 18 13 10 14 13 17 16 23 16 18 21 18 18 10 5 1 0 6 10 8 12 10 9 10 21 17 23 18 16 15 13 12 12 12 14 14 13 13 13 13 13 14 15 16 15 14 14
55 56 56 57 57 57 56 57 56 56 55 55 56 57 56 53 46 41 43 39 31 24 20 25 25 17 19 15 14 16 16 17 18 21 22 23 25 26 25 23 21 18 21 15 19 16 21 20 26 18 18 16 15 17 10 16 12 13 11 8 9 11 7 10 16 22 21 18 21 16 15 13 12 11 11 13 14 14 14 14 14 14 14 14 14 15 14 15
56 55 56 55 55 56 56 56 56 55 54 52 50 46 43 39 32 25 40 36 30 30 30 31 25 26 17 15 15 17 18 17 17 21 23 25 28 19 19 22 28 25 28 18 25 19 28 17 13 11 18 23 19 20 19 14 16 16 16 13 12 9 10 14 18 23 25 18 15 14 16 15 14 12 11 11 12 14 13 13 13 15 14 14 14 14 16 15
55 55 54 55 56 56 56 56 56 55 52 50 48 39 22 30 28 21 29 27 30 32 32 29 25 20 15 14 16 19 14 11 19 20 23 26 24 17 16 19 22 19 23 30 26 28 28 14 11 18 18 15 15 17 18 18 18 18 13 10 8 13 8 14 15 19 25 18 13 16 14 13 12 11 11 12 13 12 11 12 12 13 14 14 15 16 17 16
55 54 54 55 55 56 56 56 56 52 50 51 48 37 36 39 40 38 32 16 29 34 30 26 25 18 16 17 17 17 14 10 13 18 24 26 21 13 24 18 22 17 27 29 28 21 17 13 17 16 17 17 17 18 18 19 19 15 6 10 13 9 15 17 19 20 18 17 14 13 12 11 11 11 12 12 12 14 14 14 13 14 15 15 15 16 18 17
54 53 54 55 55 56 56 57 54 49 49 45 44 41 41 46 45 47 32 30 24 30 32 32 25 22 17 19 20 19 15 17 17 18 24 27 22 24 27 18 23 25 24 22 18 14 15 20 18 19 18 19 18 19 18 20 19 10 11 9 9 12 10 8 17 16 17 15 12 13 13 13 13 14 12 14 12 15 16 17 19 19 16 15 15 17 18 17
54 53 53 54 55 56 56 55 52 50 46 45 44 40 43 47 43 41 33 23 22 24 31 28 23 25 19 18 23 20 17 20 19 16 26 26 23 27 26 26 23 24 20 25 22 18 17 20 18 21 21 16 18 16 19 15 9 14 12 11 10 8 10 9 10 15 19 23 19 16 16 16 16 7 9 14 13 14 18 15 16 18 21 20 22 20 20 17
54 53 52 54 55 54 54 49 45 42 44 41 44 45 46 47 48 42 31 25 25 26 28 33 28 21 19 21 25 24 25 25 24 23 26 24 26 29 25 26 23 18 21 27 25 22 18 16 20 19 17 19 17 16 15 9 7 9 12 13 8 10 8 10 12 11 8 10 13 13 7 6 9 8 9 13 12 12 14 15 17 18 17 19 17 18 20 22
53 53 52 54 55 53 53 39 40 45 41 40 38 47 46 46 47 47 30 23 11 24 31 21 20 17 20 20 21 29 26 21 22 22 36 26 28 27 28 23 23 16 23 24 18 20 19 20 19 21 17 18 18 13 13 14 8 10 9 13 13 11 10 10 10 11 10 13 15 15 6 9 9 9 10 12 12 12 14 17 16 14 15 17 20 18 17 18
54 52 52 54 54 52 39 36 38 44 34 40 49 47 47 48 46 39 18 21 10 29 19 25 19 21 27 26 23 24 12 21 20 23 24 27 26 31 23 24 25 26 29 27 15 10 20 21 18 16 14 17 13 9 9 11 15 9 15 13 12 12 13 11 14 11 9 12 16 12 9 7 8 8 11 11 12 12 13 15 16 15 13 13 15 17 19 19
54 53 51 54 53 48 35 39 41 43 32 42 46 45 46 46 45 40 24 7 1 34 23 30 22 27 26 28 21 18 16 25 22 22 27 27 29 27 22 25 24 26 22 18 10 23 20 19 16 17 13 11 10 10 11 14 12 19 15 16 15 15 14 13 18 13 12 11 10 9 10 7 11 7 10 10 7 8 10 12 15 15 16 16 17 18 18 18
54 53 53 53 53 49 51 43 43 45 45 45 44 45 45 46 41 28 17 -3 16 27 34 22 28 21 27 28 20 26 29 29 20 27 27 26 23 26 18 26 27 25 26 25 10 17 20 17 19 16 14 9 12 10 12 16 7 19 17 18 16 15 15 14 13 14 15 11 11 7 8 8 6 5 5 9 6 9 12 12 14 17 19 19 21 21 20 21
54 51 53 52 50 51 49 47 46 46 45 45 46 45 42 36 27 16 5 -0 31 15 23 25 21 24 28 23 27 23 17 22 29 28 26 24 18 25 27 29 28 24 20 24 22 21 18 25 22 20 14 12 12 16 16 15 19 22 20 15 15 12 12 11 11 13 14 7 10 6 7 5 8 3 5 5 18 19 14 12 13 16 16 17 21 20 22 20
53 52 51 50 53 44 41 34 41 46 45 46 45 42 39 36 25 11 -3 14 20 22 26 28 20 32 26 20 14 27 24 26 26 29 19 29 21 28 26 20 28 20 17 18 16 22 23 24 25 22 20 17 17 18 20 18 18 17 11 9 10 9 8 12 12 14 8 7 6 7 6 6 6 3 6 10 20 18 15 21 14 14 16 19 22 22 23 23
53 50 48 47 46 46 34 33 42 45 43 45 42 37 31 16 18 1 1 26 13 19 17 18 26 22 24 23 15 19 14 23 24 26 19 18 17 16 15 18 20 8 9 9 16 15 12 17 19 20 24 17 15 11 15 19 19 16 12 11 9 8 8 5 6 7 6 7 8 6 7 4 4 7 9 13 11 16 19 19 16 17 16 19 20 22 23 25
52 50 48 47 48 46 44 45 44 46 45 44 40 35 27 13 -4 19 14 15 4 17 14 24 19 21 19 16 12 19 22 14 25 24 26 24 21 12 18 20 15 5 2 7 6 5 8 15 19 19 19 21 12 9 9 10 14 12 9 10 9 6 6 6 5 7 7 5 6 6 9 5 6 10 12 11 12 16 16 18 19 19 18 19 20 22 21 23
51 45 47 45 47 46 46 44 43 44 44 43 30 26 18 2 1 21 20 16 13 24 25 22 21 21 16 9 14 15 8 19 19 19 22 15 15 8 15 17 19 13 5 9 2 4 5 6 14 17 12 17 14 9 8 7 9 9 9 7 12 10 9 7 7 5 10 8 6 9 9 10 8 19 15 12 16 15 15 16 19 20 21 21 21 21 18 18
49 46 47 44 42 41 45 42 44 45 44 41 32 26 6 12 12 13 17 11 10 16 19 23 15 10 9 11 13 17 13 16 18 15 16 11 5 8 7 7 17 14 9 10 19 12 4 4 10 16 15 13 13 14 15 11 9 9 10 10 13 11 14 7 12 10 11 8 9 9 11 13 8 14 15 17 14 14 15 16 19 21 20 20 16 17 18 18
49 49 47 43 42 40 45 43 45 44 44 39 36 17 8 17 6 4 14 20 16 9 14 14 14 8 6 10 10 15 19 15 15 14 12 12 10 7 9 8 10 14 12 11 16 10 5 1 14 15 13 13 15 17 15 14 13 9 8 10 10 17 10 11 9 4 6 7 8 14 7 7 8 9 12 12 13 14 15 16 20 19 18 17 17 17 15 17
49 44 31 41 43 42 44 44 44 41 41 36 25 9 21 10 8 10 29 20 20 13 2 9 13 7 13 13 7 17 16 14 16 12 2 12 7 11 13 13 17 17 14 10 15 18 10 6 13 11 11 14 16 16 15 17 15 15 11 9 11 11 10 16 6 9 8 6 8 6 9 11 11 7 10 12 12 13 14 16 23 16 18 15 15 15 14 16
49 41 40 44 40 44 44 43 43 40 43 31 16 27 18 12 19 22 25 22 20 8 10 3 9 11 16 15 9 16 15 12 13 10 4 9 5 14 13 13 20 18 19 19 12 15 11 10 11 12 13 15 16 16 14 16 18 11 11 11 12 10 8 8 9 6 6 8 7 7 12 11 10 15 10 10 12 12 14 18 18 16 14 15 13 14 14 16
41 45 36 31 40 42 45 42 43 45 41 23 22 16 23 16 23 25 26 24 21 9 11 10 9 9 12 15 15 14 14 14 14 6 3 4 6 13 14 15 16 21 21 18 15 12 9 11 8 12 12 12 12 13 11 10 14 14 13 10 11 17 11 9 9 11 8 6 8 11 11 5 18 20 13 10 11 13 13 19 14 14 15 13 12 13 14 15
41 35 39 37 41 42 41 43 46 37 31 14 24 21 23 16 25 27 29 26 19 12 14 11 8 13 10 13 13 13 14 12 11 10 5 5 8 15 14 17 15 19 21 20 12 17 12 6 7 8 12 10 8 11 9 9 13 13 12 13 12 15 15 14 10 11 9 8 7 6 7 10 8 11 9 11 11 13 16 15 14 14 13 12 12 14 14 14
38 41 41 45 41 42 43 39 32 27 27 22 22 16 24 21 26 26 29 30 22 24 18 12 10 12 8 13 13 8 12 11 10 15 9 8 8 10 20 18 24 16 19 15 13 13 18 7 10 8 6 7 7 12 12 10 11 9 13 14 13 12 9 8 9 14 9 8 8 5 7 11 11 12 11 11 11 14 13 13 13 12 11 12 12 13 14 14
32 26 38 39 41 42 39 29 23 23 22 18 17 22 26 33 23 21 27 26 22 18 20 15 17 10 9 7 7 10 8 13 11 12 10 14 8 7 16 22 23 23 13 10 11 16 12 9 13 11 8 8 10 12 13 13 11 12 11 16 15 18 14 9 7 10 8 11 10 7 6 8 13 13 11 11 12 13 13 13 12 12 12 12 13 14 14 14
38 25 34 40 38 45 34 25 27 27 20 22 25 24 27 27 20 22 23 22 19 19 18 17 15 13 13 11 12 12 9 13 11 16 7 8 9 16 25 25 23 21 16 13 12 15 24 13 11 9 9 9 11 12 13 13 11 10 11 12 14 13 17 13 11 11 7 9 7 7 6 8 9 13 11 11 12 13 13 13 14 13 12 11 12 13 13 13
37 35 36 38 39 48 38 18 17 21 24 23 21 23 27 27 22 19 20 20 18 18 16 18 15 16 14 18 13 11 11 15 8 8 10 15 15 26 25 25 24 17 14 14 11 18 13 12 10 8 10 10 7 8 8 10 10 9 12 11 12 14 16 13 13 8 8 11 10 8 7 9 10 12 13 12 12 13 13 13 13 13 13 13 13 13 13 14
29 28 31 34 33 35 23 30 23 25 21 20 15 14 15 19 24 22 19 18 22 17 18 13 17 17 18 18 17 16 14 6 16 12 16 17 21 22 21 20 21 21 26 27 29 25 13 12 10 6 4 3 4 3 4 7 12 9 9 10 12 16 17 12 10 8 7 10 9 9 8 8 9 10 10 11 13 13 13 13 13 13 12 12 13 13 13 14
29 9 28 36 31 30 26 27 27 28 24 20 16 12 16 13 21 22 24 21 23 21 18 18 22 19 17 17 14 15 15 15 15 16 16 16 14 22 23 23 23 27 28 27 28 15 18 13 9 10 9 7 11 16 12 12 9 14 17 16 18 13 14 15 12 9 8 12 9 10 10 9 9 10 10 11 13 13 13 13 12 12 11 12 13 14 15 15
29 24 20 22 30 27 20 26 22 18 17 15 11 8 15 13 12 11 24 20 22 19 19 19 17 14 13 13 12 12 15 14 15 17 19 18 18 14 18 24 24 27 27 29 24 19 16 14 16 11 16 13 10 10 13 11 9 9 14 18 18 16 16 15 11 11 14 11 9 13 10 13 10 10 10 13 13 13 13 12 11 10 11 12 13 15 19 15
22 23 26 18 14 17 24 19 24 17 15 15 15 11 11 13 11 14 12 20 23 24 16 12 18 17 13 13 9 11 10 16 14 19 18 13 17 16 19 21 24 24 24 18 19 20 18 13 16 15 18 14 11 10 10 10 10 10 12 12 16 16 15 14 16 14 12 11 9 10 9 9 9 9 11 13 13 13 12 11 11 12 12 13 15 15 16 15
29 21 23 24 23 19 13 17 21 26 20 17 22 13 11 13 13 9 13 17 18 18 15 17 7 13 15 14 10 18 13 12 18 17 16 16 18 18 16 17 24 24 17 17 16 16 18 13 14 13 14 13 12 11 12 11 11 12 15 12 11 13 16 16 15 14 12 13 10 9 9 10 10 11 13 14 14 13 12 12 11 11 12 14 16 16 16 16
29 27 16 24 23 21 21 19 16 18 15 15 16 6 9 11 8 12 13 13 11 10 18 9 11 13 17 16 13 15 15 13 12 18 18 19 18 18 18 17 20 23 20 18 17 17 16 11 17 15 13 14 10 11 13 11 11 11 9 10 10 10 11 13 14 13 13 11 11 11 10 11 12 14 15 14 13 13 12 12 12 12 13 15 16 16 16 16
32 28 33 25 13 19 22 18 16 16 15 15 8 7 12 12 10 11 10 13 9 6 17 12 13 20 20 18 16 14 19 13 15 15 16 18 17 18 19 18 20 22 20 18 17 19 15 13 11 12 11 13 9 9 9 10 10 10 9 9 8 8 13 12 15 15 14 14 11 11 13 11 12 14 14 13 12 12 12 12 12 13 15 16 16 17 16 16
33 30 34 38 23 25 17 13 13 9 17 13 9 10 12 14 13 13 12 20 25 23 22 21 18 16 15 18 19 22 20 19 22 21 23 17 19 18 15 15 18 23 21 18 16 14 13 12 12 11 11 13 9 8 9 8 10 12 12 7 8 7 9 10 11 12 11 9 12 9 8 10 13 15 13 13 13 13 13 13 13 14 15 16 16 17 16 15